ATLAS 5 CENTAUR DEB, 44107

Orbit data source: Space-Track

ATLAS 5 CENTAUR DEB, 44107 is space debris in HEO originally from a launch on Wed, 17 Sep 2014 UTC launched from the Air Force Eastern Test Range (AFETR). Debris objects in space refer to the collection of defunct objects orbiting the Earth. Examples of debris include non-operational satellites, rocket bodies, and fragments generated from explosions, collisions, or faulty payload assembly.

Loading next visibility...
Identifier
44107, 2014-055CC
Orbit
HEO
Country
Flag of USUS
Related business
Flag of USUnited Launch Alliance/Lockheed Martin (US)
Manufacturer
Unknown
Mission
Spacecraft
Bus & Motor
Unknown
Mass
Unknown
Launch date (UTC)
2014-09-17 (12 years ago)
Launch vehicle
Unknown
Launch site
Air Force Eastern Test Range (AFETR)
Object type
Payload
Rocket body
Debris
Shape & HBR
Unknown shape, 1.1 m
Radar Cross Section
Medium (>0.1 m² and <1 m²)

Expand to show TLE details & history
Last TLE update: 4 days ago

TLE from 4 days ago
0 ATLAS 5 CENTAUR DEB
1 44107U 14055CC  26169.21275287 -.00000035  00000-0  00000+0 0  9997
2 44107  19.1215 189.9525 4756009  85.5909 325.3540  1.75837523 46556
Epoch: 2026-06-18T05:06Z
TLE epoch observation values (Epoch: 2026-06-18T05:06:21.847Z)
Latitude
-0.00002°
Longitude
-153.06854°
Altitude
15,228.526 km
Speed
4.811 km/s
True Right ascension
12h 39m 55s
True Declination
0° 00' 00"
Sunlit
Object was in daylight at epoch
Visualization orbit readout
Latitude
Unknown
Longitude
Unknown
Altitude
Unknown
Speed
Unknown
Apparent Right ascension
Unknown
Apparent Declination
Unknown
Sunlit
N/A
Visualization observer readout
Local Sidereal Time
21:41:15
Azimuth
Unknown
Elevation
Unknown
Doppler factor
Unknown
Orbital elements
Apogee altitude
36,410.129 km
Perigee altitude
8,827.959 km
Semi-major axis
28,997.181 km
Eccentricity
0.4756
Inclination
19.1215°
RAAN
189.9525°
Arg. of periapsis
85.5909°
True anomaly
274.55057°
Mean anomaly
325.354°
Eccentric anomaly
302.32773°
Mean motion
0.43955 °/min
Orbital period
819.02 mins
BSTAR
0
Loading maneuver chart data...
Computing Atmospheric mass density...

Documentation

Showing up to 5 results
|